Theta_e
347 345 343 342 342 341 342 342 342 341 342 343 342 343 346 346 344 341 340 340 341 343 343 343 341 340 340 341 342 341 341 341 342 342 342 341 342 342 340 336 336 338 340 338 334 333 335 337 332 329 328 330 335 336 336 336 335 335 335 334 334 335 334 334 334 333 333 333 333 334 335 335 336 336 337 337 337 336 335 335 334 334 334 333 333
345 344 342 340 340 340 339 340 339 339 339 342 342 342 344 347 347 344 342 340 341 343 344 343 343 344 341 339 340 341 343 343 341 341 342 342 341 342 341 337 336 338 339 340 338 335 334 335 335 331 329 331 335 336 336 336 335 335 335 335 335 335 335 335 334 334 333 333 333 333 334 335 335 336 336 336 336 335 334 333 333 333 333 333 332
341 342 341 341 341 341 340 340 340 340 340 340 340 340 341 344 344 345 345 343 341 342 343 343 343 344 343 340 339 342 345 344 342 341 342 343 342 342 342 339 337 337 338 339 339 338 335 334 334 334 331 330 333 335 336 335 334 334 334 335 335 336 336 335 335 335 334 335 335 334 334 334 334 334 334 334 333 333 333 332 332 332 332 332 331
340 340 341 341 342 342 342 342 342 342 342 341 339 339 339 340 339 340 342 342 341 341 342 342 343 344 344 343 341 342 344 344 344 344 344 343 341 341 342 341 338 337 337 338 339 340 338 335 333 334 333 331 330 333 335 334 334 333 333 334 335 335 336 335 336 336 335 336 336 336 336 335 335 334 333 332 332 332 332 331 331 331 332 331 330
342 343 343 342 343 342 343 342 342 342 343 341 339 339 339 338 338 338 338 339 341 342 342 343 343 343 344 345 344 343 343 344 345 345 346 344 343 342 342 341 340 339 338 337 338 339 340 338 334 333 333 333 331 332 332 333 333 333 333 333 334 335 335 336 336 336 336 336 336 336 336 336 335 335 334 334 333 332 332 331 330 330 331 331 331
345 346 346 345 345 345 345 344 344 343 343 341 340 340 340 340 341 341 339 338 340 343 345 346 345 344 343 344 345 344 343 344 345 346 346 346 344 343 343 343 342 341 340 339 338 339 340 339 339 336 333 333 333 333 332 333 333 333 334 334 334 334 334 335 335 336 336 336 336 336 336 336 336 336 335 335 334 333 333 332 331 330 331 332 332
345 346 348 348 347 347 347 345 345 346 345 344 343 343 342 341 342 342 341 341 341 342 344 346 346 344 342 341 343 344 344 345 345 345 345 345 345 343 343 343 344 343 342 341 340 339 339 339 340 339 337 334 333 333 333 334 334 335 335 335 335 335 334 334 334 335 335 335 335 335 335 335 335 335 335 335 334 333 333 332 331 330 331 332 333
346 348 349 348 348 348 347 346 347 348 348 347 345 345 344 343 342 340 341 342 342 343 342 342 343 342 341 341 341 341 342 344 344 344 345 346 346 344 342 341 342 342 342 342 342 341 340 339 339 340 340 338 335 332 332 334 334 335 335 335 336 336 335 335 335 335 334 334 334 334 334 334 334 334 334 334 334 333 332 332 331 330 331 331 332
349 350 348 346 346 345 345 345 345 345 346 346 345 345 345 344 343 340 338 338 341 343 342 341 340 339 340 342 341 340 341 342 343 344 345 346 346 345 343 341 339 340 341 341 342 342 340 338 338 339 340 340 338 334 332 333 334 335 335 336 336 336 336 336 335 335 334 334 334 334 333 333 333 333 332 332 332 331 330 329 329 328 329 330 331
345 345 345 343 341 340 341 344 345 344 344 345 346 345 345 345 344 342 338 336 337 339 342 343 343 341 339 341 341 340 341 342 343 343 345 345 345 345 345 344 341 339 340 341 342 344 342 340 338 338 339 340 340 338 334 332 333 333 334 336 336 336 337 337 336 336 335 335 335 334 334 333 333 333 332 331 331 330 329 329 328 327 328 328 330
343 339 340 341 340 340 341 344 346 346 343 343 347 347 345 345 344 343 340 338 334 334 340 343 344 345 342 343 345 343 341 342 342 342 343 345 346 346 345 346 343 340 339 340 341 344 344 343 340 338 339 338 340 339 337 335 334 334 334 336 338 338 338 338 338 338 337 337 336 336 335 334 334 334 333 333 332 332 332 331 331 331 330 329 329
346 341 339 341 341 341 342 344 345 345 343 343 348 349 345 344 344 344 344 341 337 336 340 343 342 343 340 340 344 344 340 341 342 341 341 342 344 345 345 346 345 343 342 341 340 342 344 343 340 340 341 339 339 340 339 338 336 335 335 336 337 338 339 340 340 339 339 339 339 339 338 337 337 336 335 335 334 334 334 334 334 334 333 332 331
343 342 340 339 339 339 339 339 342 345 344 343 347 348 346 345 345 346 346 345 342 341 343 345 345 343 341 339 339 340 340 341 342 341 341 342 343 345 345 344 345 345 345 343 340 339 343 343 340 341 343 341 339 339 340 340 338 337 337 337 337 338 339 340 339 340 340 340 340 341 340 340 339 339 339 338 337 337 336 336 336 336 335 335 334
341 340 339 339 339 338 338 337 340 343 344 343 343 344 345 347 348 349 348 347 345 345 346 347 345 343 344 344 342 342 343 343 342 342 342 343 344 344 345 345 345 345 345 345 343 340 341 343 342 340 340 340 340 340 340 340 339 338 338 338 338 338 339 339 339 339 340 340 340 341 341 341 340 340 340 339 339 340 340 339 339 338 337 336 336
338 337 337 338 339 339 339 339 339 339 341 342 342 343 344 346 347 348 348 347 346 345 345 345 344 342 345 345 343 345 346 345 345 344 343 344 344 344 345 345 346 346 345 346 346 345 343 344 344 342 339 338 338 339 339 339 340 339 338 338 337 337 338 338 339 339 339 339 339 340 341 341 341 341 340 339 339 340 340 340 340 340 339 338 337
335 335 335 335 336 337 337 339 339 339 340 340 339 341 343 343 344 345 346 347 346 346 344 343 343 343 344 343 342 345 345 345 346 345 344 344 343 343 344 344 345 346 346 345 346 348 347 346 345 342 338 337 337 337 338 337 338 338 338 338 337 336 336 337 338 339 339 339 340 341 341 341 341 340 339 339 339 339 339 339 339 339 339 338 337
329 330 331 332 332 333 335 336 337 338 338 338 337 339 340 341 343 344 346 346 345 346 346 345 344 343 342 341 342 345 344 344 344 343 344 345 343 343 343 344 344 345 346 345 344 345 347 348 347 343 338 336 337 337 337 337 336 337 338 337 336 335 334 334 336 338 339 339 340 340 340 340 339 338 337 337 338 338 337 338 338 338 338 338 338
323 324 327 329 331 332 334 335 337 337 337 338 338 338 339 340 341 343 345 346 345 346 346 346 345 344 342 339 340 344 344 344 345 344 345 346 345 345 344 343 344 345 346 344 341 342 345 347 347 345 340 336 336 337 337 337 337 337 338 338 335 334 333 332 333 336 338 339 339 339 338 337 337 337 336 337 336 336 336 336 336 336 337 337 338
323 325 326 327 329 332 335 337 338 338 338 340 340 337 337 338 339 341 342 344 345 345 344 344 344 344 342 340 339 341 341 342 343 344 345 345 343 343 345 344 344 345 346 346 344 344 346 346 347 346 344 339 337 337 337 337 337 338 338 338 338 336 335 334 334 333 335 337 338 338 337 336 336 336 337 337 336 336 336 336 336 336 336 336 336
327 328 329 330 332 334 337 338 338 338 340 342 341 337 336 337 338 339 340 342 343 343 342 342 344 344 343 342 341 342 342 341 342 343 344 345 343 342 343 343 343 345 346 347 347 347 347 347 347 346 346 344 340 338 338 338 337 337 337 337 337 337 336 336 335 334 333 334 335 336 337 336 337 338 339 339 338 338 337 337 337 336 336 337 337
330 330 332 335 335 337 338 339 340 340 340 341 341 338 335 335 337 337 338 340 341 342 342 342 343 343 344 344 343 344 344 342 342 343 343 344 344 343 343 342 342 343 344 345 347 347 347 348 347 346 346 346 344 340 338 337 336 336 336 336 336 336 336 336 336 335 333 333 334 335 336 337 339 340 341 341 341 341 340 339 338 337 337 336 337
330 330 332 336 337 337 338 338 339 340 339 339 339 338 336 336 338 338 338 339 340 341 342 342 343 343 344 344 344 343 343 341 342 344 344 344 344 343 343 343 343 342 342 345 347 347 346 346 347 346 345 345 345 343 340 336 336 336 335 335 334 335 335 335 335 334 334 332 333 334 336 337 339 340 342 342 342 342 342 342 341 339 338 338 337
328 328 330 332 335 336 336 336 336 337 338 339 340 340 340 340 339 339 338 339 339 341 341 340 341 342 342 343 343 342 342 341 341 343 345 345 343 342 342 343 342 342 342 345 347 348 347 345 345 347 347 345 344 344 342 338 335 335 334 333 332 332 333 333 333 333 333 333 332 333 335 336 338 339 340 340 340 341 342 343 343 342 340 340 339
326 328 327 327 330 333 334 333 332 333 335 337 337 337 339 339 340 339 338 338 338 338 339 339 340 341 341 341 341 341 342 341 340 342 345 344 342 341 342 342 341 342 343 344 345 346 345 344 344 345 347 347 345 344 343 339 336 333 332 332 331 332 332 332 332 332 332 332 331 332 334 335 337 337 338 339 339 340 340 342 343 342 342 342 342
327 328 326 325 328 331 332 331 330 330 331 331 332 332 333 334 336 338 338 338 338 337 337 337 338 338 339 340 341 341 341 341 340 341 344 344 342 342 342 341 340 341 342 344 345 345 344 344 344 343 343 345 345 344 343 340 338 336 333 332 332 332 333 334 335 335 334 333 332 331 333 334 335 336 337 338 338 339 341 342 342 342 343 344 344
326 327 327 327 328 331 331 330 329 329 329 330 330 330 330 332 334 334 334 336 336 337 336 336 336 336 337 338 338 339 340 341 341 342 342 343 342 340 339 338 338 339 339 342 344 345 344 343 344 344 341 339 339 339 339 339 339 338 336 335 334 333 332 333 335 337 337 336 334 333 332 333 334 336 337 337 338 340 342 343 343 343 342 343 343
324 325 326 326 328 329 329 327 327 328 328 329 329 330 330 331 333 331 332 334 336 336 334 333 334 335 336 337 337 338 338 338 339 340 340 339 338 337 338 339 338 338 338 339 342 343 343 343 343 345 343 338 334 333 335 337 338 338 337 336 336 334 332 331 333 337 339 339 338 335 334 333 334 335 336 337 339 341 343 343 343 343 343 343 343
324 324 325 326 327 327 327 326 326 327 329 329 329 330 329 329 330 330 333 336 336 335 334 334 335 333 333 335 336 338 338 336 336 337 337 336 335 335 336 337 338 338 337 337 340 341 341 342 342 344 344 340 336 335 335 336 337 337 337 336 336 335 332 331 332 337 340 340 339 337 335 333 334 336 337 339 341 341 341 341 341 342 343 343 343
325 325 325 325 326 327 327 327 327 327 328 328 328 328 328 328 328 329 332 334 335 335 334 335 336 335 333 333 334 336 337 337 336 336 335 334 334 334 334 336 337 338 338 337 338 339 339 341 342 343 343 342 340 337 336 336 337 336 336 336 336 333 332 333 334 337 338 339 340 339 338 337 337 338 340 340 340 340 340 340 340 341 341 341 341
326 326 326 326 327 328 327 327 328 327 327 328 327 327 329 331 331 331 331 333 334 334 334 334 335 335 335 335 334 333 335 338 336 335 336 335 335 334 334 335 334 336 338 337 337 338 338 339 340 341 342 343 343 341 339 337 337 337 336 337 336 334 334 336 336 338 338 338 339 339 339 339 339 339 339 340 340 340 340 340 340 340 340 340 340
325 325 326 326 327 328 328 327 328 328 329 331 331 330 331 332 332 332 332 331 332 333 334 333 333 333 334 335 334 333 334 337 336 335 337 338 336 334 334 334 334 334 337 338 338 337 337 338 339 339 340 343 346 347 343 339 339 338 337 338 337 335 336 338 338 338 338 339 339 339 339 339 339 339 340 340 340 340 340 339 340 340 340 340 340
324 324 324 325 326 327 328 328 328 328 328 330 331 331 331 331 331 331 330 329 329 330 331 330 330 330 331 332 333 334 334 335 335 335 337 338 336 335 334 334 336 336 337 338 338 335 334 336 337 338 338 340 345 346 342 340 342 340 337 338 338 335 337 340 340 339 339 339 339 339 340 339 339 340 339 340 339 339 339 339 339 340 341 341 342
324 324 324 325 326 326 327 327 327 326 326 326 327 329 331 331 329 329 329 328 328 327 326 327 328 328 329 329 330 332 333 334 334 335 337 336 335 336 335 334 336 338 337 338 337 334 333 335 335 335 334 337 343 344 340 340 343 342 340 339 337 337 339 340 340 339 338 339 340 339 339 340 339 340 339 339 338 337 338 338 338 338 338 338 339
322 322 324 325 326 326 327 327 326 326 326 326 326 327 328 328 327 328 329 329 328 325 323 324 326 327 327 327 328 328 330 331 333 334 337 337 335 337 340 337 335 336 337 338 338 336 336 335 336 336 333 335 341 342 340 340 342 343 343 343 339 337 340 341 342 343 342 339 340 340 339 340 339 339 338 337 337 337 337 336 336 336 336 337 338
322 322 323 325 326 326 326 326 326 326 326 326 326 326 326 326 326 328 328 329 327 324 323 323 324 325 325 325 326 326 327 329 331 333 336 338 334 334 338 338 335 335 337 338 338 338 337 337 337 337 336 336 339 340 339 339 340 341 344 346 343 338 338 340 342 346 345 340 339 339 338 338 337 336 337 336 336 337 337 336 336 336 337 337 337
322 322 323 325 326 326 325 325 326 326 326 327 326 326 326 327 327 327 327 327 326 324 322 323 323 324 324 324 325 326 327 329 331 331 333 337 337 333 334 335 335 336 336 337 338 338 338 338 338 337 338 337 339 341 340 339 340 341 342 346 347 342 337 337 339 342 343 340 339 339 338 337 336 336 336 336 336 336 337 337 338 338 337 337 337
325 325 325 326 327 327 326 325 326 326 326 326 326 326 327 326 327 327 326 325 324 322 322 322 323 323 324 326 326 326 328 329 330 331 332 336 338 334 332 333 335 336 336 337 339 339 338 338 337 338 338 338 339 341 340 339 342 344 342 342 347 345 339 336 337 339 340 339 339 340 340 339 338 337 336 336 336 336 337 338 338 338 338 338 338
328 328 329 329 328 327 327 326 326 326 326 326 326 326 326 326 326 326 325 324 323 322 321 322 323 323 324 327 328 327 328 328 329 331 332 335 337 334 333 334 334 336 337 337 338 338 338 337 337 337 338 339 340 341 340 338 341 345 345 344 344 343 339 338 337 338 339 339 339 340 340 340 339 337 337 336 336 336 337 337 336 335 335 336 337
327 328 330 330 329 329 328 326 325 325 325 326 326 326 326 326 326 325 324 323 323 322 322 322 323 324 324 325 327 327 328 328 329 330 331 334 337 336 334 334 334 335 337 338 339 338 337 338 337 336 338 339 339 342 341 337 337 340 343 346 345 343 341 339 337 338 340 340 340 340 340 340 340 339 337 336 335 336 337 336 334 333 334 334 336
327 327 329 330 329 328 327 326 325 325 325 325 326 326 326 326 326 325 323 323 322 321 322 323 324 323 322 322 324 325 326 327 328 329 330 333 336 336 335 334 335 337 337 338 339 337 338 340 338 335 337 339 339 341 341 340 340 341 340 342 344 343 343 343 340 337 340 340 340 342 343 341 341 339 338 336 335 336 337 336 333 333 333 333 335
327 327 328 327 326 326 327 327 326 325 325 325 325 326 326 327 326 324 323 323 322 321 322 323 323 323 322 321 322 323 325 326 328 329 330 332 334 335 335 335 336 337 338 339 339 337 337 340 339 335 337 339 338 340 341 340 339 339 339 340 342 342 343 346 345 341 339 339 340 343 344 342 341 340 339 337 335 335 336 336 334 332 332 333 335
326 326 325 323 325 327 329 330 328 327 326 325 324 324 325 326 325 323 322 323 322 321 322 323 324 323 322 321 321 322 324 326 329 331 331 331 332 332 333 334 335 337 338 339 338 336 336 338 337 336 338 339 338 339 340 339 336 337 340 342 343 343 342 345 348 346 341 339 340 342 342 342 341 342 341 338 336 336 335 335 334 332 333 333 335
326 326 325 325 327 329 329 330 329 328 328 326 323 323 323 325 324 321 322 323 323 322 323 323 323 323 321 321 321 322 323 324 327 330 331 332 332 332 332 331 333 335 337 337 336 335 336 338 337 337 338 338 338 338 339 339 338 340 343 343 342 342 344 345 348 349 344 340 341 342 341 341 341 341 341 339 337 336 336 335 334 333 332 333 336
326 325 325 327 328 329 329 330 329 329 329 327 323 322 322 323 323 320 322 324 324 324 323 323 323 322 322 322 322 322 323 323 324 327 330 332 332 333 333 332 331 332 334 336 337 336 336 339 338 337 337 338 338 338 338 339 341 342 343 342 340 340 343 345 346 347 346 342 340 341 340 340 341 340 340 340 338 337 337 335 335 333 333 333 336
326 326 326 327 329 329 329 329 329 328 328 326 323 321 322 323 322 320 321 323 325 325 324 324 323 322 322 322 321 321 323 323 323 324 327 329 331 331 333 334 333 332 332 334 335 336 337 340 339 336 335 337 338 338 337 337 340 342 343 342 341 340 341 344 343 345 348 345 340 340 341 343 345 342 341 341 339 338 338 336 335 333 332 334 336
327 327 327 327 328 328 328 328 328 328 327 325 322 321 321 323 322 321 321 322 323 324 325 325 324 322 322 322 321 321 323 323 322 323 324 326 328 330 331 333 334 334 334 333 333 334 336 337 337 335 335 337 337 337 337 336 336 341 343 342 341 340 340 340 340 343 348 347 341 340 343 347 347 345 342 342 341 339 337 336 335 333 333 335 336
327 326 326 327 327 327 327 327 327 327 327 325 322 321 321 322 324 323 322 321 321 322 322 324 325 323 322 322 320 321 323 324 322 323 323 323 324 328 330 331 333 334 335 335 334 334 333 334 335 335 336 338 338 337 338 338 337 339 342 341 340 340 340 340 341 344 347 347 344 342 344 347 347 346 345 343 342 339 336 335 334 333 334 335 336
326 325 325 325 326 326 326 326 326 327 327 325 323 321 320 322 325 324 322 321 321 321 321 323 323 323 323 323 320 319 322 324 323 322 323 323 323 326 328 329 331 333 335 336 336 335 334 334 334 334 335 337 337 337 337 340 340 339 341 340 339 341 342 341 343 344 344 346 344 341 341 345 347 348 347 345 343 341 337 336 335 334 334 336 337
325 324 324 325 325 325 326 326 327 328 327 326 324 322 320 322 325 325 323 321 321 321 321 322 323 323 324 324 323 318 319 323 324 322 322 323 323 324 327 328 329 331 333 336 337 336 336 335 334 334 334 334 335 335 336 338 338 340 342 340 339 340 341 341 342 342 342 344 343 340 340 344 346 347 347 347 345 340 339 340 339 335 335 336 337
325 324 325 325 325 326 325 326 326 326 326 326 325 322 320 322 325 325 321 320 320 321 321 322 322 323 324 325 325 322 319 321 324 324 322 322 323 324 326 327 328 330 332 334 336 337 337 337 336 335 335 334 333 334 335 336 337 339 340 340 339 340 341 341 341 341 342 343 343 341 341 343 346 346 346 347 346 340 338 341 341 337 336 338 337
326 325 325 325 325 326 325 325 326 326 326 327 325 323 321 321 324 323 319 319 320 320 321 321 321 322 323 325 326 325 322 321 324 324 323 321 322 323 325 326 327 329 331 332 335 337 337 338 338 337 336 335 334 333 334 334 336 337 337 338 339 341 341 341 341 341 343 344 344 343 343 344 346 346 344 345 347 343 340 341 342 339 337 337 337
Wind_Speed
11 12 12 12 13 13 13 13 14 13 13 13 12 11 11 12 13 13 13 13 12 11 10 10 10 10 11 11 11 12 12 12 12 11 12 12 11 11 10 10 10 9 9 8 8 9 10 10 9 10 11 13 14 14 13 12 12 11 11 11 11 10 10 9 9 9 8 8 8 8 8 7 7 7 6 6 6 6 6 6 5 5 5 5 5
12 13 13 13 13 13 13 14 14 14 14 14 13 13 12 11 13 14 14 14 13 12 12 11 10 10 12 12 12 12 11 12 13 12 13 13 12 12 12 11 12 11 10 10 10 9 10 11 11 10 11 12 14 14 14 13 12 12 12 12 12 11 10 10 9 9 9 8 8 8 8 8 8 8 7 7 7 7 7 7 6 6 6 6 5
14 14 15 14 14 13 13 13 14 14 14 14 14 14 14 13 14 14 14 15 15 14 14 13 12 11 12 13 13 12 12 13 13 13 13 13 13 13 13 13 13 13 12 11 11 11 11 12 12 12 11 12 14 14 14 14 13 13 13 13 13 12 11 11 10 10 9 9 9 8 8 8 8 8 8 8 8 8 7 7 7 7 7 6 5
15 16 16 16 16 15 14 14 14 14 14 14 14 15 15 15 16 16 16 17 17 17 16 15 13 12 12 13 14 13 13 13 12 12 13 14 14 14 14 14 14 14 14 13 13 13 13 13 13 14 13 13 13 14 15 14 14 13 13 14 13 13 13 12 11 11 10 10 10 9 9 9 9 8 8 8 8 9 9 8 8 8 7 7 6
17 17 17 18 19 18 17 17 16 15 15 15 15 15 16 16 17 18 18 19 19 19 18 17 15 14 13 13 14 14 14 14 13 12 13 13 14 15 15 15 15 16 16 16 15 15 15 15 15 15 15 15 14 14 15 15 15 14 14 14 14 14 13 13 13 12 11 11 11 11 10 10 10 10 10 10 10 10 10 10 9 9 8 8 7
19 19 19 21 21 20 20 19 18 17 17 17 17 16 16 16 16 17 19 19 19 19 18 17 16 15 15 14 14 15 15 15 14 13 13 14 14 15 15 15 16 17 17 17 17 17 17 17 17 16 16 16 16 16 16 16 16 15 15 15 15 14 14 14 14 13 13 12 12 12 12 11 11 11 11 11 11 11 11 11 11 10 10 9 9
21 22 22 23 23 23 22 21 20 20 19 19 19 18 18 17 17 17 18 19 19 19 19 18 18 18 17 16 16 16 16 15 15 15 14 14 15 16 16 15 16 17 18 17 18 18 18 18 18 18 18 18 18 18 18 17 17 17 16 16 16 16 15 15 15 14 14 13 13 13 13 13 13 13 12 12 12 12 12 12 12 11 11 10 10
22 23 24 24 23 23 22 21 21 21 21 21 21 21 21 20 20 20 19 19 20 20 21 21 20 20 19 19 18 18 17 16 16 16 15 14 15 16 17 17 17 18 19 19 19 19 19 19 19 20 20 19 19 19 20 19 19 18 18 17 17 17 17 16 16 15 15 14 14 14 13 13 13 13 13 13 13 13 13 13 13 12 12 11 11
22 23 24 23 23 23 23 23 22 21 21 23 22 22 22 22 23 22 21 23 22 22 22 22 22 21 21 20 19 19 18 18 17 16 15 16 17 17 17 18 18 18 19 19 19 20 20 19 19 21 22 21 20 20 21 21 20 20 19 19 18 18 18 17 17 16 16 15 15 14 14 14 14 14 14 14 14 13 13 12 12 12 12 12 12
21 24 25 24 24 26 26 25 24 22 22 24 25 24 23 23 23 23 24 25 25 25 24 22 22 21 21 21 20 21 20 19 19 18 17 17 18 18 17 18 19 18 18 19 18 19 20 20 20 21 23 23 22 21 21 22 22 21 21 20 19 19 19 18 18 17 17 16 15 15 14 14 14 13 13 13 13 13 12 12 12 12 12 12 13
21 23 26 26 25 27 28 25 24 24 23 24 26 25 24 25 25 24 25 26 25 27 27 23 21 21 21 20 20 22 23 21 21 21 20 18 18 18 17 17 19 19 19 19 19 18 19 21 20 21 22 24 24 24 23 22 23 23 22 22 21 20 20 19 19 18 18 17 16 16 15 15 14 14 14 13 13 13 13 12 12 12 12 13 13
19 20 23 24 24 25 26 25 24 25 26 26 25 24 24 25 26 25 26 27 27 29 29 25 23 23 24 23 22 24 25 24 25 24 23 21 20 19 19 17 18 19 20 20 20 19 19 20 21 21 21 23 24 25 24 24 24 24 24 24 23 22 21 21 20 20 19 18 18 17 17 16 15 15 14 14 14 14 13 13 13 13 13 14 14
16 16 18 19 20 21 22 23 23 24 26 26 23 21 23 24 25 25 25 26 27 29 30 26 23 23 25 26 26 27 27 26 27 26 25 23 21 21 21 20 19 18 19 20 21 20 19 20 22 21 21 22 24 24 24 25 25 25 25 25 25 24 23 22 22 21 21 20 20 19 18 18 17 16 15 15 15 15 15 14 14 14 14 15 15
18 19 20 19 20 20 20 22 22 22 24 25 22 21 23 23 23 24 25 26 26 26 28 27 26 25 22 21 22 23 25 26 27 27 26 24 22 22 23 23 22 20 19 20 21 22 20 20 21 22 22 23 23 23 23 25 25 26 26 26 26 25 25 24 23 23 22 22 22 21 20 19 18 17 17 17 16 16 16 16 16 15 15 16 16
21 22 22 21 21 21 20 21 21 21 23 23 23 22 23 23 23 24 26 27 26 26 28 30 30 28 22 19 20 19 19 21 24 25 24 24 24 24 24 24 23 22 21 20 20 21 21 21 22 23 23 24 24 23 23 23 24 24 25 25 26 25 25 25 25 24 24 23 23 22 22 21 20 20 19 18 18 18 18 17 17 17 17 17 17
20 20 21 22 22 22 22 23 23 23 23 24 24 24 23 24 25 26 28 29 28 26 27 29 30 30 25 21 21 20 19 19 21 22 21 23 25 25 24 23 23 23 24 23 21 21 21 22 23 25 24 24 25 25 24 24 24 24 24 25 25 25 25 25 25 24 24 24 23 22 22 21 21 21 20 20 20 20 19 19 19 19 19 19 19
19 19 20 20 21 22 22 24 25 24 24 25 25 25 24 24 24 25 27 29 30 26 24 27 29 30 29 25 22 21 20 19 18 19 17 17 19 21 22 22 22 23 24 25 25 23 23 22 24 26 26 24 25 25 25 25 25 25 25 25 26 25 26 26 25 25 25 24 23 22 22 21 21 21 21 21 21 21 21 21 21 21 21 21 21
20 20 19 20 20 21 21 22 23 24 24 23 24 25 24 23 23 24 25 26 29 29 28 29 30 29 29 30 28 26 23 18 16 16 16 15 14 15 17 19 20 21 23 25 26 25 25 24 24 27 28 26 25 25 26 27 27 26 25 25 25 25 25 26 26 26 26 25 25 24 23 23 23 22 22 22 22 22 22 23 23 23 23 23 23
19 18 19 20 20 19 19 19 20 22 22 20 21 23 22 22 21 22 23 23 26 30 30 31 32 32 31 32 34 34 34 28 23 21 18 16 17 16 16 16 17 19 21 22 22 22 23 25 25 26 27 28 27 26 26 27 28 28 27 27 27 26 25 25 26 27 27 27 27 26 26 25 25 24 24 24 24 24 24 25 25 25 24 24 24
16 17 18 18 18 17 16 17 18 20 19 17 18 19 20 21 20 21 22 21 24 26 26 28 30 31 32 33 33 33 34 34 32 29 21 17 20 22 21 19 17 17 19 20 20 20 21 23 24 25 25 27 28 27 27 27 28 28 28 28 28 28 28 27 27 27 28 28 28 28 27 27 26 25 25 25 25 25 25 26 26 26 26 26 25
13 14 15 15 15 14 14 15 16 17 17 16 16 17 19 20 20 21 22 22 23 23 24 25 25 26 28 31 32 29 30 32 31 28 24 22 23 25 25 24 22 21 20 20 20 20 20 21 23 24 24 25 26 28 28 28 29 29 28 28 28 29 29 29 28 28 29 29 29 29 28 28 27 27 26 25 25 25 26 26 26 26 26 26 26
13 14 13 13 14 13 14 14 14 14 15 15 15 17 18 19 20 21 22 23 22 21 23 23 22 24 25 28 31 32 32 33 29 23 23 24 25 27 25 23 24 25 22 20 20 20 20 20 21 23 24 24 24 26 27 29 30 31 30 30 29 29 29 29 30 30 30 30 30 30 30 29 29 28 27 27 26 26 26 26 26 26 26 26 26
15 15 14 13 14 14 14 14 14 13 13 13 14 15 15 16 17 19 19 21 22 21 22 22 21 23 25 27 30 32 33 33 28 23 21 22 24 26 26 24 25 26 23 20 18 18 19 19 20 21 22 24 24 25 27 28 29 30 30 30 30 30 31 31 31 31 32 32 32 32 32 31 30 30 29 28 28 27 27 27 27 27 26 26 26
16 15 15 15 14 15 14 15 15 14 13 14 14 14 14 15 15 16 17 18 20 20 21 21 21 21 24 24 26 31 34 34 30 25 22 23 24 24 24 24 24 24 21 19 19 19 19 19 20 20 21 22 24 25 27 30 30 30 29 29 29 29 29 30 30 31 32 33 34 34 33 33 32 31 30 29 29 28 28 29 29 29 27 27 27
15 15 16 15 14 14 15 15 16 15 15 15 15 15 16 16 16 16 17 17 19 20 20 21 21 21 21 21 23 26 28 29 29 27 23 23 23 24 26 25 24 24 22 19 19 19 20 21 21 22 22 23 24 26 28 30 31 32 31 30 29 29 28 28 28 29 30 32 34 34 34 34 33 32 31 30 29 29 29 30 30 30 30 29 28
16 15 15 14 13 13 14 15 15 15 15 15 15 15 16 16 16 17 18 18 19 20 22 21 22 23 22 22 23 22 20 21 23 23 22 22 23 27 29 27 26 27 26 22 19 19 20 21 21 23 26 27 26 27 29 30 31 32 33 32 31 31 30 29 28 28 28 30 32 33 34 34 33 32 31 30 30 30 30 30 30 31 31 30 30
16 15 14 13 13 13 14 15 15 15 15 15 16 16 16 16 16 18 18 18 19 21 24 24 24 25 24 25 25 23 22 23 22 22 22 23 25 26 27 28 26 26 27 24 21 23 24 23 21 22 25 30 30 29 29 30 30 31 33 33 32 32 32 31 29 28 28 28 29 31 33 33 33 32 31 30 30 29 28 28 29 30 31 31 31
15 15 15 14 13 13 14 14 14 15 15 16 16 17 17 18 18 18 17 16 17 20 23 24 25 27 26 26 27 26 27 28 27 26 26 26 26 26 28 29 27 26 28 26 23 25 25 24 24 24 26 30 31 29 29 29 30 30 31 32 32 32 32 31 30 28 26 26 26 28 29 31 31 31 30 29 28 28 28 28 29 30 31 32 32
15 15 15 15 15 14 13 12 13 14 14 16 17 18 18 18 18 18 17 16 16 19 22 22 23 25 27 27 28 28 29 31 31 30 30 30 29 29 31 32 31 29 30 28 25 25 23 22 23 24 25 28 29 29 28 28 29 29 30 30 31 32 32 30 29 27 26 25 25 25 26 27 28 29 29 29 28 28 28 28 29 29 30 31 31
14 14 15 15 14 13 13 12 12 14 15 16 18 19 18 17 16 17 18 17 17 19 21 22 22 23 25 26 28 30 30 31 32 31 31 31 32 32 33 33 33 34 34 31 28 27 24 22 22 22 22 24 26 27 27 26 27 27 28 29 29 30 30 29 28 27 26 26 26 26 26 26 27 28 28 28 27 26 25 25 25 26 27 28 29
13 14 15 15 14 13 12 13 13 14 15 15 15 16 16 15 15 15 17 18 19 20 21 23 25 24 24 26 28 31 31 30 32 32 30 31 33 35 35 35 36 37 37 35 33 31 28 25 24 23 22 23 22 23 26 25 25 25 25 27 28 29 29 28 27 26 26 27 26 26 26 27 27 28 27 26 25 24 24 23 23 24 25 25 26
12 14 15 15 15 14 13 13 14 15 16 15 14 14 15 15 15 15 17 18 19 20 21 24 26 27 27 28 29 30 31 32 33 31 29 32 35 37 38 38 37 37 38 38 37 37 35 31 29 27 27 27 24 25 29 26 24 25 25 25 27 27 27 26 26 26 25 26 26 25 25 26 26 26 25 24 24 23 22 22 22 22 23 23 23
12 13 14 15 15 15 15 15 16 17 18 18 16 15 14 15 15 16 18 18 19 20 23 24 25 26 28 29 31 32 32 33 34 33 33 34 35 35 37 38 37 38 39 39 40 42 39 36 35 34 33 31 27 29 32 29 24 25 24 24 26 27 26 25 24 24 24 24 24 24 24 24 24 24 24 23 22 21 21 21 21 22 22 23 23
13 13 14 14 15 16 16 16 17 18 18 17 16 15 15 15 16 17 17 18 20 22 23 25 25 26 28 29 31 32 33 34 36 34 33 34 35 32 33 36 39 41 40 38 40 42 39 35 34 34 33 31 29 31 32 30 26 24 23 24 27 27 26 25 22 20 21 21 21 22 22 22 23 23 22 22 21 20 20 21 21 22 22 22 22
14 14 14 14 15 16 16 16 17 18 18 16 15 15 16 17 18 18 18 19 21 23 25 26 27 29 31 32 32 32 32 33 36 35 34 36 37 36 36 39 41 42 40 39 40 40 37 33 32 31 30 29 30 31 31 31 28 25 24 24 26 28 28 27 22 18 19 20 19 20 22 22 22 22 21 21 20 20 20 20 20 20 21 21 22
15 15 14 14 14 14 15 16 16 17 17 16 16 16 17 18 18 19 20 21 21 22 25 27 29 31 34 35 34 32 32 32 34 36 36 35 36 38 40 41 42 43 41 40 40 39 35 32 30 29 29 29 29 28 29 30 29 27 27 24 24 28 31 30 26 23 22 22 21 21 22 22 22 22 22 21 21 21 20 20 20 21 21 22 23
16 16 15 15 15 15 15 16 16 17 18 18 19 18 18 18 19 21 22 22 21 21 24 28 30 32 34 35 35 33 33 33 34 35 34 34 37 40 40 40 42 43 41 40 40 38 35 33 31 29 27 28 28 27 28 28 25 24 26 25 25 28 31 31 30 27 24 24 24 24 24 24 24 24 23 22 22 21 21 20 21 22 23 23 24
16 16 15 16 15 15 16 17 17 19 20 21 20 20 19 20 21 22 23 21 19 21 26 29 30 32 32 33 34 34 33 35 36 35 34 33 36 38 38 39 42 42 42 39 38 38 36 33 32 30 28 29 28 27 29 30 26 23 23 24 26 29 31 32 32 29 26 26 25 25 26 27 26 26 25 24 23 21 21 21 22 22 23 24 25
15 15 16 16 16 16 16 17 18 19 20 21 21 20 20 21 23 24 22 20 19 21 26 28 29 31 32 32 33 34 33 34 35 36 35 32 32 35 37 39 41 43 42 37 36 38 35 33 34 33 31 31 29 26 28 30 29 27 24 22 24 28 30 31 33 31 28 28 27 25 26 27 27 28 27 26 25 23 22 22 22 23 24 24 25
16 16 16 16 17 17 16 16 18 19 19 20 20 20 20 21 22 23 22 20 19 21 25 28 27 30 33 33 34 34 33 32 33 36 35 31 30 34 36 36 40 43 40 35 37 39 33 29 34 36 32 32 31 28 26 26 27 29 29 28 26 27 27 27 31 33 30 28 28 24 24 26 28 29 29 28 26 25 23 23 23 23 23 24 25
16 17 16 16 17 17 16 16 16 18 18 18 18 19 19 21 22 22 21 20 19 21 25 28 27 29 33 36 36 35 30 27 28 31 33 33 32 32 33 34 37 39 35 31 35 38 34 32 36 36 34 33 33 30 28 28 29 30 30 29 28 27 25 22 25 30 31 29 27 25 24 26 27 28 30 30 28 27 25 24 24 23 23 24 24
16 17 17 17 17 16 15 15 15 17 17 18 19 19 19 20 22 21 21 20 19 21 25 27 26 29 34 37 38 36 31 26 21 21 23 26 30 32 35 37 37 34 31 32 36 38 38 38 38 36 33 33 35 32 29 30 32 30 27 25 25 26 25 22 21 24 30 30 28 27 27 26 27 27 28 30 30 29 28 27 25 24 23 23 23
16 16 17 17 16 15 14 14 15 16 17 19 20 20 19 20 21 20 20 19 18 20 24 25 25 30 35 37 38 38 35 30 23 17 15 18 23 27 32 36 37 35 33 35 40 40 40 39 38 36 34 33 34 32 29 29 29 28 26 26 27 27 24 23 22 23 28 32 29 27 28 27 27 28 28 30 31 31 30 30 28 27 24 23 22
15 16 16 16 15 14 14 14 15 15 17 19 20 20 20 20 19 19 19 18 18 20 22 23 25 29 33 36 38 38 37 34 29 23 17 15 19 23 28 32 35 38 38 38 38 39 40 37 36 38 37 35 34 32 31 30 27 26 28 28 30 30 27 25 25 22 23 29 30 27 27 27 27 28 28 29 31 31 32 32 31 29 26 23 22
14 15 15 14 14 14 15 15 16 16 17 19 20 20 20 19 17 17 17 17 17 19 21 23 25 27 30 34 37 37 37 35 32 29 25 20 18 19 24 29 32 34 38 41 39 37 37 36 37 41 39 35 34 33 32 32 30 27 28 28 30 32 31 30 29 22 19 25 29 27 25 23 23 26 28 28 30 31 32 33 32 30 26 23 23
13 14 14 14 15 15 15 15 16 17 17 20 22 20 19 18 16 16 17 17 17 19 21 23 24 24 27 31 35 36 35 35 34 32 30 29 25 23 22 25 31 33 34 38 42 42 41 40 41 42 40 37 35 34 32 33 33 31 29 29 31 33 32 31 29 23 20 23 27 26 22 20 21 24 26 26 28 30 31 31 31 29 25 23 23
12 13 14 14 15 16 15 15 16 16 17 20 22 21 19 17 16 17 18 18 18 20 21 23 23 23 24 27 33 35 33 33 35 34 33 33 31 28 26 23 26 32 34 34 38 43 45 45 43 42 41 38 35 34 31 29 32 35 33 31 31 29 28 27 25 23 22 22 24 25 22 20 20 22 23 24 25 27 28 29 29 27 24 22 23
13 13 14 13 14 15 15 15 16 16 16 19 22 22 19 17 17 18 19 19 20 20 21 23 23 22 22 23 29 34 33 31 32 34 34 33 32 30 29 27 22 26 33 34 35 39 43 45 46 45 43 39 35 35 33 29 30 32 31 31 30 27 25 23 22 24 24 23 25 26 24 21 19 19 19 20 21 23 23 24 25 24 22 21 22
12 13 13 13 13 14 14 15 15 15 16 19 21 21 19 18 18 19 20 20 20 21 21 22 23 22 21 21 23 29 33 32 31 33 33 34 32 31 31 31 27 22 27 34 36 38 40 41 43 45 46 44 41 39 36 33 32 30 30 31 30 26 24 23 23 23 24 26 27 28 26 23 20 19 18 16 18 21 19 17 20 23 21 20 21
13 12 12 13 13 14 15 14 15 16 16 17 19 20 18 17 18 19 20 20 20 21 21 21 22 22 21 20 20 23 28 31 31 32 32 33 34 32 31 33 31 25 21 27 33 36 39 39 39 40 43 45 45 43 40 37 34 32 31 30 27 25 25 24 24 23 23 24 26 26 27 25 21 20 19 16 17 21 19 15 18 23 21 19 20
12 12 12 13 14 15 15 14 15 16 16 15 18 19 17 16 17 18 20 21 21 21 21 22 22 22 21 21 21 22 24 26 29 30 31 32 34 32 30 31 32 31 24 20 27 33 37 39 39 39 39 40 42 44 43 41 39 37 34 31 29 29 27 25 24 24 23 24 25 25 26 25 21 21 21 18 16 18 19 16 18 22 21 19 20
Wind_Direction
264 268 272 274 276 275 273 271 271 271 269 272 272 267 266 273 278 276 274 272 271 273 273 272 276 275 269 262 262 265 265 265 263 259 255 248 245 247 245 244 246 245 244 241 238 238 236 234 235 241 238 221 210 214 219 223 226 228 230 228 226 224 224 227 228 229 227 227 227 228 231 234 239 248 254 254 255 260 267 272 270 268 268 270 274
263 267 272 275 276 276 276 273 271 271 270 269 270 270 268 266 271 273 272 271 270 268 266 267 267 266 268 267 262 261 262 263 266 264 258 252 245 246 248 244 246 249 247 242 239 238 236 235 235 235 234 226 217 217 220 224 226 229 230 228 227 225 225 228 231 235 235 235 235 237 240 241 243 247 252 254 257 261 266 270 269 267 265 266 268
267 269 274 277 276 274 275 273 272 272 271 271 271 272 272 268 267 267 266 266 266 265 265 267 265 261 264 269 266 259 256 260 265 266 260 255 247 245 248 245 244 247 248 245 240 238 237 234 234 233 231 228 224 222 222 224 226 230 230 230 230 228 227 229 231 234 238 240 240 241 244 247 248 248 251 254 257 261 265 268 268 267 265 263 260
272 273 274 275 274 272 270 268 269 269 269 272 274 273 272 272 272 271 268 266 264 263 264 267 267 263 260 265 267 259 255 256 259 260 258 257 253 248 247 248 247 245 245 245 243 240 237 235 233 232 231 228 225 224 224 223 224 227 230 231 232 231 231 230 231 233 236 241 242 243 244 247 250 251 253 256 258 261 264 266 265 265 263 259 254
275 276 277 277 275 273 271 267 266 266 266 270 274 274 272 272 273 274 273 270 267 264 265 267 265 262 258 258 260 260 258 256 255 253 253 255 254 251 248 249 250 247 245 244 243 242 239 237 235 232 232 232 227 224 224 224 222 224 227 230 232 233 235 234 235 236 237 240 243 245 247 248 251 253 255 257 259 262 263 263 263 262 260 257 253
278 279 279 278 276 274 272 269 266 264 265 269 272 273 272 270 269 270 272 273 270 265 263 264 263 261 259 256 255 259 259 256 256 254 252 251 249 249 249 249 250 251 249 247 245 243 242 240 238 235 233 232 231 228 225 225 224 224 225 228 230 232 235 236 237 238 239 241 243 246 249 250 251 253 256 259 260 261 261 261 260 260 259 257 256
280 281 280 278 276 274 273 272 271 269 266 266 268 267 267 266 265 264 266 269 268 266 261 260 261 260 260 258 255 257 257 256 255 254 253 253 252 250 249 248 249 250 250 250 248 246 244 242 240 239 236 234 233 232 229 227 226 226 227 228 229 231 233 236 237 238 240 242 244 245 248 251 253 255 256 258 259 261 261 260 258 258 258 257 257
277 278 279 279 277 275 275 274 272 271 269 267 266 264 262 261 260 261 264 264 263 263 262 261 261 261 261 258 254 254 255 255 255 256 254 252 253 253 254 253 251 251 250 249 249 248 248 245 241 238 238 236 234 234 233 232 231 230 231 232 232 233 234 237 238 239 240 241 243 244 246 249 252 255 256 257 258 260 260 259 258 258 258 259 260
276 279 281 283 282 279 277 275 271 271 273 273 270 266 262 260 258 258 261 263 262 260 260 261 261 261 261 257 254 254 253 253 254 254 252 249 250 252 255 257 256 255 251 248 248 249 251 249 244 239 238 238 235 234 234 234 234 233 234 235 234 235 235 237 238 239 240 241 242 243 245 247 249 251 253 254 255 257 258 258 257 257 259 260 261
277 282 284 286 284 281 280 279 276 273 272 274 273 269 264 262 258 253 253 256 260 261 257 255 258 260 260 257 254 253 251 251 252 251 249 248 250 252 253 255 258 257 252 248 245 245 249 251 247 241 238 238 238 236 234 233 233 234 234 234 235 235 236 237 238 239 240 240 241 242 243 245 247 248 250 253 254 255 256 256 256 256 257 258 261
276 280 284 285 282 281 282 280 276 275 275 274 271 269 267 265 261 256 251 250 254 258 255 250 252 254 257 257 253 251 250 249 251 251 250 247 247 249 249 250 254 256 254 251 247 243 245 248 248 244 240 240 240 239 237 235 233 233 233 233 234 235 237 238 239 241 241 241 241 241 242 244 246 248 249 252 255 256 257 257 257 257 257 257 258
280 278 279 280 279 280 281 279 278 278 275 270 264 265 270 269 266 262 255 252 251 252 251 249 249 251 255 257 254 254 253 250 251 252 251 250 247 246 246 245 249 252 253 252 251 247 243 245 247 245 244 244 242 241 241 240 237 235 235 234 235 236 237 239 240 242 242 243 244 244 244 244 246 248 250 251 253 256 257 257 259 259 260 260 259
289 286 283 281 280 281 280 279 278 274 272 269 263 263 268 269 268 265 259 255 252 250 250 246 245 250 256 259 260 261 259 255 252 251 250 250 247 246 245 244 243 244 248 250 251 250 245 246 248 244 242 246 246 243 242 243 242 239 237 237 237 237 238 239 242 244 244 245 247 248 248 247 247 248 250 252 252 255 256 258 259 259 260 261 262
290 292 292 290 287 285 282 279 275 272 277 280 278 275 272 266 263 263 260 258 254 251 250 247 247 251 254 256 260 262 261 257 255 253 250 247 245 244 244 244 242 240 242 247 250 251 246 244 248 246 243 243 246 246 244 243 243 242 239 239 238 238 239 241 242 244 246 248 249 250 249 249 249 250 251 251 252 253 255 256 257 258 259 259 261
290 291 292 291 289 287 283 279 275 274 278 282 283 281 277 269 264 262 261 262 258 253 251 249 248 250 251 253 256 256 257 254 253 253 249 245 244 243 243 243 242 240 238 240 245 248 246 240 242 247 247 245 244 245 246 246 246 245 242 240 241 240 241 243 244 245 246 248 250 250 250 250 251 251 250 249 249 250 251 252 253 254 256 257 258
293 292 290 289 288 286 284 280 277 275 273 275 278 278 275 274 272 268 264 263 260 255 254 252 248 244 243 248 253 251 251 247 246 251 251 247 244 241 240 241 241 241 240 239 239 242 244 240 239 243 247 247 246 244 244 246 248 248 246 243 242 242 243 243 244 244 245 245 247 248 248 249 250 251 251 250 249 250 249 250 250 251 252 254 256
294 292 290 289 287 285 284 282 280 278 275 273 274 275 276 275 273 269 266 264 262 258 254 253 251 244 240 241 245 247 250 249 249 253 250 244 244 241 238 238 239 241 242 243 243 241 241 240 240 244 246 247 247 246 244 244 246 247 247 246 245 244 245 244 243 243 243 243 243 244 247 249 251 252 253 253 252 252 251 252 252 252 252 253 254
296 295 292 289 287 285 284 283 283 283 281 276 271 273 277 278 275 268 264 263 265 262 255 254 255 249 242 239 242 248 252 254 256 254 242 231 236 242 241 240 240 240 243 247 250 247 242 239 238 243 248 248 246 246 246 245 244 244 245 246 246 246 246 245 244 242 241 242 242 244 248 251 252 253 253 254 255 255 255 255 256 256 256 255 255
300 298 295 292 289 288 286 283 282 282 283 280 275 276 278 280 279 274 269 266 267 265 258 257 258 254 249 243 243 250 252 251 253 256 253 248 250 247 240 240 241 242 244 247 250 248 244 240 237 240 247 250 249 246 246 247 247 246 245 246 248 248 246 245 245 243 242 242 243 246 249 251 252 252 253 254 256 257 258 259 259 260 260 260 259
310 307 304 303 299 295 290 284 282 283 285 284 282 283 281 281 279 278 278 274 273 272 263 259 259 259 256 248 243 248 251 250 251 252 255 259 259 252 244 244 242 242 247 247 245 243 242 242 240 238 240 247 251 249 247 247 248 248 247 248 249 249 248 246 245 244 243 242 243 246 248 249 249 250 251 253 255 257 259 260 261 262 263 264 263
320 318 313 312 309 303 296 291 289 289 290 288 286 287 286 285 283 282 282 279 277 277 270 263 260 261 260 251 245 246 250 254 254 251 251 254 257 255 253 254 250 243 245 248 246 241 239 240 242 241 239 241 248 251 249 248 248 248 248 248 249 249 249 247 245 244 244 244 243 244 245 246 247 249 250 252 255 257 259 261 262 262 263 263 264
329 329 324 318 315 311 307 307 305 299 295 294 292 295 295 292 290 290 289 284 278 274 270 267 264 264 262 254 249 248 250 254 252 247 248 249 252 256 255 255 254 249 244 244 245 242 239 238 241 245 244 241 243 248 250 250 249 248 248 249 249 250 249 248 247 245 245 245 244 243 244 244 246 248 250 253 255 257 259 260 261 262 262 262 262
331 330 327 321 316 316 315 314 314 310 305 303 299 300 301 296 294 295 294 288 282 278 275 273 271 267 262 255 250 250 253 254 249 244 245 241 245 255 255 251 253 254 249 244 243 241 240 239 239 242 245 246 244 245 248 250 249 248 249 249 250 251 251 251 250 248 245 244 244 244 244 244 246 247 250 252 254 256 257 258 259 260 261 262 263
330 328 323 319 317 317 315 314 315 315 311 307 304 302 299 295 293 295 295 291 287 284 281 279 275 268 262 258 252 251 255 256 248 244 246 245 246 251 252 251 252 252 250 248 246 245 243 243 242 240 241 244 247 246 248 252 252 249 248 249 250 250 251 252 252 250 248 245 244 244 244 245 245 247 249 251 253 255 256 257 257 258 259 259 260
330 328 324 323 321 316 314 314 316 317 315 310 308 307 302 298 293 291 290 290 290 289 285 283 279 272 269 264 253 250 254 255 250 246 246 247 245 242 246 250 249 249 250 250 248 248 247 247 246 245 243 243 247 250 251 253 255 253 251 250 251 250 250 252 254 253 250 247 246 245 244 244 245 247 248 250 252 253 255 255 255 256 256 256 257
328 327 326 328 326 318 316 318 320 322 322 319 318 315 311 306 299 294 293 290 289 288 285 281 278 277 276 272 265 260 257 253 250 248 246 247 244 243 247 251 251 251 253 252 249 247 248 250 248 249 252 252 252 255 257 258 257 256 255 254 254 254 253 253 254 254 252 250 247 246 245 244 245 246 248 249 251 253 254 254 255 256 256 257 258
323 324 325 328 326 322 320 322 324 324 324 325 324 322 320 315 309 306 304 297 291 289 289 287 282 279 277 275 274 271 265 261 257 251 250 252 252 251 249 251 255 257 255 253 250 248 249 251 250 247 253 260 260 258 260 261 259 258 258 257 257 257 255 255 255 254 253 252 250 247 246 245 245 246 248 249 250 252 253 254 255 255 256 257 258
320 323 325 325 324 322 321 322 323 323 324 324 323 322 320 318 315 312 308 299 293 291 291 289 286 284 281 276 274 270 267 268 264 257 257 257 258 258 252 249 252 257 259 256 251 251 251 250 251 249 252 261 264 260 258 259 260 260 259 257 257 257 257 256 255 253 252 253 250 247 246 245 245 246 247 248 249 252 254 254 255 255 255 256 258
320 323 324 325 324 322 322 321 322 324 325 323 321 320 318 316 314 312 309 303 297 294 291 286 282 283 284 279 274 270 267 268 267 262 261 260 259 260 256 250 248 250 255 257 252 252 252 248 250 252 254 261 265 265 261 257 256 258 258 255 253 255 257 256 254 252 251 250 247 244 243 243 244 245 246 247 250 253 255 255 256 256 257 259 260
322 324 324 325 325 323 322 322 322 324 324 322 321 320 318 316 313 311 310 306 300 296 295 291 284 280 281 279 276 273 268 266 266 264 261 259 259 258 256 253 251 247 249 254 254 252 252 250 249 250 253 257 262 264 264 259 255 257 256 251 249 251 254 254 253 251 248 245 243 242 242 242 244 244 246 248 250 253 254 255 257 258 259 261 262
326 327 325 325 325 322 321 321 321 322 321 319 318 316 315 315 313 310 309 308 304 299 296 295 292 287 281 278 276 275 272 268 267 265 259 256 257 257 255 255 253 248 246 250 253 253 252 252 252 251 251 251 251 254 260 260 256 258 254 245 243 247 250 252 252 249 245 241 239 240 242 242 243 243 244 246 248 251 254 256 258 260 261 262 262
328 329 327 326 325 321 317 317 318 321 323 321 315 313 313 313 313 313 314 314 313 310 307 304 302 299 293 286 280 277 273 270 268 264 257 253 255 257 256 255 251 246 245 246 249 254 255 255 255 255 254 253 248 249 257 258 254 257 254 242 240 245 246 247 248 247 243 239 238 238 240 241 240 240 241 243 246 250 253 257 259 261 262 263 264
326 327 327 325 323 319 316 314 314 319 326 325 319 315 313 314 315 316 317 318 317 317 316 314 309 306 303 299 292 285 279 273 268 265 260 255 255 257 256 253 248 244 244 244 249 256 257 256 257 258 258 255 248 248 256 257 252 254 253 243 238 240 240 240 242 244 241 238 237 237 237 238 238 238 241 243 246 251 254 258 261 262 264 265 266
324 323 322 323 322 319 315 312 310 315 324 326 324 320 317 317 318 317 317 315 315 320 323 321 317 312 308 304 299 294 289 281 272 266 262 256 254 252 250 251 250 249 245 243 248 254 254 253 254 256 258 254 246 247 252 253 251 250 248 243 238 235 234 233 235 240 240 235 234 236 234 235 237 238 241 244 247 251 256 259 261 262 263 264 265
319 317 316 317 319 319 317 313 310 312 319 325 327 326 322 319 319 318 315 312 313 320 326 326 322 318 315 310 303 297 293 286 276 267 260 258 258 254 250 252 255 252 246 242 245 249 251 251 250 250 253 250 247 248 248 249 250 247 243 242 239 234 231 229 228 233 238 235 231 232 233 234 237 239 241 244 247 251 254 257 258 260 261 262 264
315 312 312 312 314 317 318 317 313 311 313 315 319 323 323 321 320 318 317 315 313 320 328 329 325 322 319 314 308 300 292 286 278 270 261 257 259 258 254 255 255 250 244 241 242 245 247 248 246 245 247 247 247 246 244 244 247 247 244 240 238 237 234 231 229 231 235 235 230 229 233 235 237 239 241 243 246 250 253 255 257 259 261 262 263
317 314 311 309 310 314 317 317 313 311 311 310 311 316 319 323 324 322 321 319 317 325 334 333 329 326 320 315 310 305 296 287 280 273 264 256 260 262 258 254 253 247 240 238 238 240 244 245 243 242 243 244 244 241 241 241 239 242 245 240 236 237 235 232 233 235 238 238 233 231 233 237 239 240 242 245 247 250 254 257 260 262 263 263 263
312 312 309 305 305 309 313 315 313 311 312 310 308 309 312 320 324 324 324 322 320 329 335 333 331 329 324 316 310 305 298 290 282 276 267 258 259 264 258 252 250 244 238 237 237 238 240 242 242 240 239 241 240 237 240 241 235 234 239 239 238 239 237 235 234 236 241 241 237 235 235 238 240 241 244 247 249 252 255 259 263 265 266 265 264
308 308 307 306 305 303 305 311 313 314 313 311 308 306 308 316 320 322 324 322 323 330 333 332 332 332 329 321 313 308 299 290 284 278 272 263 258 261 259 252 247 242 237 235 235 237 239 240 240 239 237 238 238 236 238 242 241 238 235 235 237 239 238 236 235 235 239 243 242 239 238 240 240 242 244 247 250 252 255 260 265 268 269 268 265
305 305 307 308 308 305 305 308 312 313 313 313 311 307 308 312 315 318 320 320 326 333 334 335 335 335 335 332 327 319 306 294 285 276 270 264 261 263 262 255 246 240 235 233 236 238 237 236 238 239 237 235 236 235 233 235 236 236 236 234 236 239 238 234 236 236 235 239 243 240 239 242 242 242 244 246 249 252 255 261 267 270 272 271 267
303 304 305 307 310 310 309 309 310 312 313 314 313 310 309 310 311 314 317 318 324 330 333 335 334 335 339 339 338 332 321 309 295 278 266 260 258 260 261 257 250 243 237 235 239 240 236 233 236 238 236 233 234 232 228 229 231 236 239 237 236 240 238 233 235 237 234 235 239 239 239 243 245 245 245 247 248 250 252 258 267 274 278 275 269
299 301 304 308 312 311 308 307 308 310 312 314 315 313 309 306 307 312 316 318 320 323 328 332 332 336 341 342 342 340 338 335 319 292 276 268 263 259 258 257 253 246 240 240 244 243 237 234 234 234 232 232 233 230 227 231 236 237 234 230 231 236 235 231 231 233 232 231 233 236 237 240 244 246 247 248 249 250 251 256 266 276 281 277 268
301 302 306 309 312 310 306 305 305 308 310 313 317 315 307 303 306 311 316 318 317 318 324 329 332 338 342 343 344 345 345 346 340 322 299 283 273 265 261 259 255 249 245 246 247 243 236 233 232 230 230 232 233 231 229 231 233 231 226 226 230 231 228 227 227 225 228 229 229 233 237 239 243 247 248 250 251 251 253 257 264 274 280 277 267
302 303 305 307 309 309 305 302 303 306 308 311 317 315 306 302 305 311 316 318 318 318 323 330 334 339 343 344 346 347 346 346 346 342 327 299 283 272 262 258 255 251 249 248 246 239 233 231 232 232 232 233 233 231 229 228 226 225 226 228 231 230 225 225 227 224 227 230 229 233 239 241 243 246 248 251 253 253 254 258 263 271 277 274 265
303 305 307 307 306 305 302 301 304 307 308 315 321 318 308 302 305 312 318 320 320 319 322 328 334 339 343 344 345 348 348 348 348 346 339 327 316 299 275 260 254 250 247 246 244 238 233 232 235 236 234 233 233 232 230 229 227 224 224 225 228 230 227 228 230 225 222 228 230 232 237 237 239 244 248 252 253 253 254 257 261 268 273 269 262
307 309 310 309 306 306 306 304 305 307 310 317 325 322 312 303 302 310 320 323 322 320 320 325 331 337 341 344 345 346 349 353 352 345 338 333 331 328 310 280 260 250 246 244 242 239 237 237 238 239 236 233 233 233 233 232 230 225 223 224 227 229 229 232 234 226 219 226 230 229 229 228 232 241 247 249 251 251 253 257 261 266 269 264 259
309 310 312 313 312 311 311 308 306 306 307 314 324 325 314 302 300 308 316 320 320 320 322 326 330 333 337 344 348 347 347 352 354 349 342 337 333 333 332 312 277 256 247 243 241 240 239 238 237 237 235 234 233 233 232 230 229 227 224 225 227 227 228 231 230 223 219 222 224 223 225 225 227 235 240 243 247 250 253 258 262 265 266 261 258
311 312 314 315 315 314 314 310 307 307 307 313 322 326 315 301 298 306 313 316 317 317 321 326 330 331 331 339 350 351 348 348 352 351 345 340 337 335 335 331 308 270 252 244 243 243 241 240 238 236 235 234 234 234 232 227 226 226 226 228 227 222 220 220 220 220 220 219 221 224 226 223 220 225 232 236 240 247 253 258 262 264 262 258 257
311 310 313 315 316 316 316 312 308 307 309 312 318 324 318 303 298 306 313 315 315 314 317 321 326 329 329 331 344 353 352 347 348 351 348 343 341 340 337 335 329 300 262 247 244 246 245 243 241 238 237 236 235 234 233 230 225 219 219 226 229 224 218 215 214 218 221 221 224 226 225 222 218 219 222 226 233 243 249 252 260 264 260 255 255
308 308 311 313 315 317 317 314 309 308 310 310 313 321 321 306 302 309 314 316 315 315 316 319 322 327 329 329 333 345 351 350 347 348 349 347 344 342 338 336 335 325 288 255 247 247 246 245 244 242 239 238 236 234 233 233 230 222 219 222 225 224 221 217 215 219 222 222 224 223 220 219 216 216 218 219 230 245 249 245 255 262 258 251 252
304 306 309 310 313 316 316 314 311 311 312 310 311 319 322 312 307 310 313 316 318 318 318 319 321 325 328 331 333 336 343 347 346 346 349 350 348 345 342 338 336 333 319 279 250 245 244 242 242 241 238 235 234 233 232 232 232 229 226 223 221 220 221 219 218 220 222 221 220 220 219 217 213 214 218 216 221 241 247 244 252 260 256 249 249